Time,TemperatureF,DewpointF,PressureIn,WindDirection,WindDirectionDegrees,WindSpeedMPH,WindSpeedGustMPH,Humidity,HourlyPrecipIn,Conditions,Clouds,dailyrainin,SoftwareType,DateUTC
2013-02-08 00:02:00,23.0,17.0,30.15,NE,45,7.0,16.0,76,-99.99,,,-99.99,,2013-02-08 05:02:00,
2013-02-08 00:11:00,23.0,17.0,30.15,NE,45,7.0,16.0,76,-99.99,,,-99.99,,2013-02-08 05:11:00,
2013-02-08 00:22:00,23.0,16.0,30.16,NE,35,7.0,16.0,76,-99.99,,,-99.99,,2013-02-08 05:22:00,
2013-02-08 00:32:00,23.0,16.0,30.16,NE,35,6.0,14.0,75,-99.99,,,-99.99,,2013-02-08 05:32:00,
2013-02-08 00:42:00,23.0,16.0,30.16,NE,35,6.0,14.0,75,-99.99,,,-99.99,,2013-02-08 05:42:00,
2013-02-08 00:52:00,23.0,16.0,30.16,NE,50,6.0,16.0,75,-99.99,,,-99.99,,2013-02-08 05:52:00,
2013-02-08 01:01:00,23.0,17.0,30.16,NNE,25,9.0,16.0,78,-99.99,,,-99.99,,2013-02-08 06:01:00,
2013-02-08 01:11:00,23.0,17.0,30.16,NNE,25,9.0,16.0,78,-99.99,,,-99.99,,2013-02-08 06:11:00,
2013-02-08 01:21:00,22.0,17.0,30.16,NNE,20,8.0,16.0,78,-99.99,,,-99.99,,2013-02-08 06:21:00,
2013-02-08 01:32:00,22.0,17.0,30.17,NNE,25,8.0,15.0,79,-99.99,,,-99.99,,2013-02-08 06:32:00,
2013-02-08 01:42:00,22.0,17.0,30.17,NNE,25,8.0,15.0,79,-99.99,,,-99.99,,2013-02-08 06:42:00,
2013-02-08 01:51:00,22.0,16.0,30.16,North,0,5.0,15.0,78,-99.99,,,-99.99,,2013-02-08 06:51:00,
2013-02-08 02:01:00,22.0,16.0,30.16,NNE,20,4.0,12.0,77,-99.99,,,-99.99,,2013-02-08 07:01:00,
2013-02-08 02:11:00,22.0,16.0,30.16,NNE,20,4.0,12.0,77,-99.99,,,-99.99,,2013-02-08 07:11:00,
2013-02-08 02:21:00,21.0,15.0,30.16,North,350,7.0,14.0,76,-99.99,,,-99.99,,2013-02-08 07:21:00,
2013-02-08 02:32:00,21.0,15.0,30.16,NNE,15,6.0,14.0,76,-99.99,,,-99.99,,2013-02-08 07:32:00,
2013-02-08 02:42:00,21.0,15.0,30.16,NNE,15,6.0,14.0,76,-99.99,,,-99.99,,2013-02-08 07:42:00,
2013-02-08 02:51:00,21.0,15.0,30.16,NNE,15,8.0,18.0,77,-99.99,,,-99.99,,2013-02-08 07:51:00,
2013-02-08 03:01:00,21.0,15.0,30.16,North,355,6.0,16.0,77,-99.99,,,-99.99,,2013-02-08 08:01:00,
2013-02-08 03:11:00,21.0,15.0,30.16,North,355,6.0,16.0,77,-99.99,,,-99.99,,2013-02-08 08:11:00,
2013-02-08 03:21:00,21.0,15.0,30.17,North,10,7.0,15.0,77,-99.99,,,-99.99,,2013-02-08 08:21:00,
2013-02-08 03:32:00,21.0,15.0,30.17,North,0,9.0,16.0,79,-99.99,,,-99.99,,2013-02-08 08:32:00,
2013-02-08 03:42:00,21.0,15.0,30.17,North,0,9.0,16.0,79,-99.99,,,-99.99,,2013-02-08 08:42:00,
2013-02-08 03:52:00,20.0,15.0,30.17,NNE,15,9.0,19.0,79,-99.99,,,-99.99,,2013-02-08 08:52:00,
2013-02-08 04:03:00,20.0,15.0,30.17,NNE,15,9.0,19.0,79,-99.99,,,-99.99,,2013-02-08 09:03:00,
2013-02-08 04:11:00,20.0,15.0,30.17,NNE,15,9.0,19.0,79,-99.99,,,-99.99,,2013-02-08 09:11:00,
2013-02-08 04:21:00,20.0,15.0,30.17,NNE,15,8.0,18.0,78,-99.99,,,-99.99,,2013-02-08 09:21:00,
2013-02-08 04:32:00,20.0,15.0,30.17,NNE,15,6.0,14.0,79,-99.99,,,-99.99,,2013-02-08 09:32:00,
2013-02-08 04:42:00,20.0,15.0,30.17,NNE,15,6.0,14.0,79,-99.99,,,-99.99,,2013-02-08 09:42:00,
2013-02-08 04:52:00,20.0,13.0,30.18,NNE,20,5.0,16.0,76,-99.99,,,-99.99,,2013-02-08 09:52:00,
2013-02-08 05:01:00,20.0,14.0,30.18,NNE,20,7.0,16.0,77,-99.99,,,-99.99,,2013-02-08 10:01:00,
2013-02-08 05:11:00,20.0,14.0,30.18,NNE,20,7.0,16.0,77,-99.99,,,-99.99,,2013-02-08 10:11:00,
2013-02-08 05:22:00,20.0,14.0,30.19,NNE,20,6.0,16.0,78,-99.99,,,-99.99,,2013-02-08 10:22:00,
2013-02-08 05:32:00,20.0,16.0,30.19,North,0,6.0,16.0,84,-99.99,,,-99.99,,2013-02-08 10:32:00,
2013-02-08 05:42:00,20.0,16.0,30.19,North,0,6.0,16.0,84,-99.99,,,-99.99,,2013-02-08 10:42:00,
2013-02-08 05:51:00,20.0,15.0,30.19,North,10,8.0,16.0,83,-99.99,,,-99.99,,2013-02-08 10:51:00,
2013-02-08 06:01:00,20.0,15.0,30.19,NNE,20,6.0,17.0,81,-99.99,,,-99.99,,2013-02-08 11:01:00,
2013-02-08 06:11:00,20.0,15.0,30.19,NNE,20,6.0,17.0,81,-99.99,,,-99.99,,2013-02-08 11:11:00,
2013-02-08 06:21:00,20.0,15.0,30.19,North,0,9.0,20.0,80,-99.99,,,-99.99,,2013-02-08 11:21:00,
2013-02-08 06:32:00,20.0,15.0,30.21,North,10,10.0,18.0,80,-99.99,,,-99.99,,2013-02-08 11:32:00,
2013-02-08 06:42:00,20.0,15.0,30.21,North,10,10.0,18.0,80,-99.99,,,-99.99,,2013-02-08 11:42:00,
2013-02-08 06:52:00,20.0,14.0,30.21,NNE,30,9.0,21.0,78,-99.99,,,-99.99,,2013-02-08 11:52:00,
2013-02-08 07:02:00,20.0,14.0,30.21,NNE,25,6.0,18.0,77,-99.99,,,-99.99,,2013-02-08 12:02:00,
2013-02-08 07:11:00,20.0,14.0,30.21,NNE,25,6.0,18.0,77,-99.99,,,-99.99,,2013-02-08 12:11:00,
2013-02-08 07:22:00,20.0,14.0,30.21,North,0,9.0,16.0,79,-99.99,,,-99.99,,2013-02-08 12:22:00,
2013-02-08 07:33:00,20.0,14.0,30.21,NNE,30,9.0,17.0,78,-99.99,,,-99.99,,2013-02-08 12:33:00,
2013-02-08 07:42:00,20.0,14.0,30.21,NNE,30,9.0,17.0,78,-99.99,,,-99.99,,2013-02-08 12:42:00,
2013-02-08 07:52:00,20.0,14.0,30.21,North,5,6.0,14.0,77,-99.99,,,-99.99,,2013-02-08 12:52:00,
2013-02-08 08:01:00,20.0,14.0,30.22,North,5,6.0,21.0,78,-99.99,,,-99.99,,2013-02-08 13:01:00,
2013-02-08 08:11:00,20.0,14.0,30.22,North,5,6.0,21.0,78,-99.99,,,-99.99,,2013-02-08 13:11:00,
2013-02-08 08:22:00,20.0,14.0,30.23,NNE,25,5.0,19.0,77,-99.99,,,-99.99,,2013-02-08 13:22:00,
2013-02-08 08:32:00,19.0,14.0,30.23,North,10,8.0,17.0,78,-99.99,,,-99.99,,2013-02-08 13:32:00,
2013-02-08 08:42:00,19.0,14.0,30.23,North,10,8.0,17.0,78,-99.99,,,-99.99,,2013-02-08 13:42:00,
2013-02-08 08:51:00,19.0,13.0,30.25,North,10,10.0,19.0,77,-99.99,,,-99.99,,2013-02-08 13:51:00,
2013-02-08 09:02:00,19.0,13.0,30.25,North,0,11.0,17.0,75,-99.99,,,-99.99,,2013-02-08 14:02:00,
2013-02-08 09:11:00,19.0,13.0,30.25,North,0,11.0,17.0,75,-99.99,,,-99.99,,2013-02-08 14:11:00,
2013-02-08 09:22:00,20.0,13.0,30.25,North,5,6.0,17.0,75,-99.99,,,-99.99,,2013-02-08 14:22:00,
2013-02-08 09:32:00,20.0,13.0,30.25,NNE,20,8.0,17.0,75,-99.99,,,-99.99,,2013-02-08 14:32:00,
2013-02-08 09:42:00,20.0,13.0,30.25,NNE,20,8.0,17.0,75,-99.99,,,-99.99,,2013-02-08 14:42:00,
2013-02-08 09:52:00,20.0,12.0,30.26,NNE,25,4.0,18.0,73,-99.99,,,-99.99,,2013-02-08 14:52:00,
2013-02-08 10:02:00,20.0,13.0,30.26,North,10,6.0,14.0,73,-99.99,,,-99.99,,2013-02-08 15:02:00,
2013-02-08 10:11:00,20.0,13.0,30.26,North,10,6.0,14.0,73,-99.99,,,-99.99,,2013-02-08 15:11:00,
2013-02-08 10:22:00,20.0,13.0,30.27,North,10,6.0,14.0,75,-99.99,,,-99.99,,2013-02-08 15:22:00,
2013-02-08 10:32:00,20.0,12.0,30.28,North,0,7.0,14.0,72,-99.99,,,-99.99,,2013-02-08 15:32:00,
2013-02-08 10:42:00,20.0,12.0,30.28,North,0,7.0,14.0,72,-99.99,,,-99.99,,2013-02-08 15:42:00,
2013-02-08 10:52:00,20.0,13.0,30.29,North,10,7.0,20.0,72,-99.99,,,-99.99,,2013-02-08 15:52:00,
2013-02-08 11:01:00,20.0,13.0,30.29,NNE,15,7.0,18.0,74,-99.99,,,-99.99,,2013-02-08 16:01:00,
2013-02-08 11:11:00,20.0,13.0,30.29,NNE,15,7.0,18.0,74,-99.99,,,-99.99,,2013-02-08 16:11:00,
2013-02-08 11:22:00,21.0,13.0,30.30,NNE,15,4.0,14.0,72,-99.99,,,-99.99,,2013-02-08 16:22:00,
2013-02-08 11:32:00,21.0,14.0,30.30,NNE,30,5.0,15.0,73,-99.99,,,-99.99,,2013-02-08 16:32:00,
2013-02-08 11:42:00,21.0,14.0,30.30,NNE,30,5.0,15.0,73,-99.99,,,-99.99,,2013-02-08 16:42:00,
2013-02-08 11:52:00,22.0,13.0,30.31,North,5,8.0,15.0,68,-99.99,,,-99.99,,2013-02-08 16:52:00,
2013-02-08 12:03:00,22.0,13.0,30.31,North,5,5.0,14.0,70,-99.99,,,-99.99,,2013-02-08 17:03:00,
2013-02-08 12:12:00,22.0,13.0,30.31,North,5,5.0,14.0,70,-99.99,,,-99.99,,2013-02-08 17:12:00,
2013-02-08 12:23:00,21.0,12.0,30.31,North,0,5.0,17.0,69,-99.99,,,-99.99,,2013-02-08 17:23:00,
2013-02-08 12:32:00,21.0,12.0,30.31,NNE,25,6.0,13.0,67,-99.99,,,-99.99,,2013-02-08 17:32:00,
2013-02-08 12:42:00,21.0,12.0,30.31,NNE,25,6.0,13.0,67,-99.99,,,-99.99,,2013-02-08 17:42:00,
2013-02-08 12:52:00,22.0,12.0,30.31,NNE,25,5.0,13.0,66,-99.99,,,-99.99,,2013-02-08 17:52:00,
2013-02-08 13:02:00,22.0,12.0,30.31,North,5,6.0,14.0,66,-99.99,,,-99.99,,2013-02-08 18:02:00,
2013-02-08 13:12:00,22.0,12.0,30.31,North,5,6.0,14.0,66,-99.99,,,-99.99,,2013-02-08 18:12:00,
2013-02-08 13:24:00,22.0,12.0,30.31,North,350,5.0,14.0,65,-99.99,,,-99.99,,2013-02-08 18:24:00,
2013-02-08 13:35:00,22.0,13.0,30.31,North,10,6.0,14.0,67,-99.99,,,-99.99,,2013-02-08 18:35:00,
2013-02-08 13:43:00,22.0,13.0,30.31,North,10,6.0,14.0,67,-99.99,,,-99.99,,2013-02-08 18:43:00,
2013-02-08 13:52:00,22.0,13.0,30.31,North,350,8.0,15.0,67,-99.99,,,-99.99,,2013-02-08 18:52:00,
2013-02-08 14:02:00,22.0,12.0,30.31,North,5,7.0,15.0,66,-99.99,,,-99.99,,2013-02-08 19:02:00,
2013-02-08 14:11:00,22.0,12.0,30.31,North,5,7.0,15.0,66,-99.99,,,-99.99,,2013-02-08 19:11:00,
2013-02-08 14:22:00,22.0,12.0,30.32,North,0,8.0,14.0,64,-99.99,,,-99.99,,2013-02-08 19:22:00,
2013-02-08 14:32:00,22.0,12.0,30.32,North,355,9.0,15.0,66,-99.99,,,-99.99,,2013-02-08 19:32:00,
2013-02-08 14:42:00,22.0,12.0,30.32,North,355,9.0,15.0,66,-99.99,,,-99.99,,2013-02-08 19:42:00,
2013-02-08 14:52:00,22.0,12.0,30.31,NNE,15,4.0,16.0,65,-99.99,,,-99.99,,2013-02-08 19:52:00,
2013-02-08 15:02:00,22.0,12.0,30.31,NNE,15,4.0,16.0,65,-99.99,,,-99.99,,2013-02-08 20:02:00,
2013-02-08 15:22:00,21.0,11.0,30.31,North,10,6.0,14.0,66,-99.99,,,-99.99,,2013-02-08 20:22:00,
2013-02-08 15:32:00,21.0,11.0,30.32,NNE,15,6.0,14.0,64,-99.99,,,-99.99,,2013-02-08 20:32:00,
2013-02-08 15:42:00,21.0,11.0,30.32,NNE,15,6.0,14.0,64,-99.99,,,-99.99,,2013-02-08 20:42:00,
2013-02-08 15:52:00,22.0,11.0,30.31,North,0,4.0,11.0,64,-99.99,,,-99.99,,2013-02-08 20:52:00,
2013-02-08 16:02:00,22.0,10.0,30.32,North,350,4.0,14.0,60,-99.99,,,-99.99,,2013-02-08 21:02:00,
2013-02-08 16:11:00,22.0,10.0,30.32,North,350,4.0,14.0,60,-99.99,,,-99.99,,2013-02-08 21:11:00,
2013-02-08 16:22:00,21.0,10.0,30.32,NNE,20,5.0,11.0,60,-99.99,,,-99.99,,2013-02-08 21:22:00,
2013-02-08 16:32:00,21.0,10.0,30.33,North,5,6.0,12.0,61,-99.99,,,-99.99,,2013-02-08 21:32:00,
2013-02-08 16:42:00,21.0,10.0,30.33,North,5,6.0,12.0,61,-99.99,,,-99.99,,2013-02-08 21:42:00,
2013-02-08 16:52:00,21.0,10.0,30.33,North,0,5.0,11.0,61,-99.99,,,-99.99,,2013-02-08 21:52:00,
2013-02-08 17:02:00,21.0,10.0,30.33,North,0,5.0,11.0,61,-99.99,,,-99.99,,2013-02-08 22:02:00,
2013-02-08 17:22:00,21.0,11.0,30.33,North,0,4.0,11.0,65,-99.99,,,-99.99,,2013-02-08 22:22:00,
2013-02-08 17:32:00,22.0,10.0,30.33,North,5,4.0,10.0,61,-99.99,,,-99.99,,2013-02-08 22:32:00,
2013-02-08 17:42:00,22.0,10.0,30.33,North,5,4.0,10.0,61,-99.99,,,-99.99,,2013-02-08 22:42:00,
2013-02-08 17:52:00,20.0,10.0,30.33,North,10,6.0,12.0,65,-99.99,,,-99.99,,2013-02-08 22:52:00,
2013-02-08 18:01:00,20.0,10.0,30.33,North,0,4.0,7.0,66,-99.99,,,-99.99,,2013-02-08 23:01:00,
2013-02-08 18:11:00,20.0,10.0,30.33,North,0,4.0,7.0,66,-99.99,,,-99.99,,2013-02-08 23:11:00,
2013-02-08 18:21:00,20.0,10.0,30.33,North,10,1.0,6.0,65,-99.99,,,-99.99,,2013-02-08 23:21:00,
2013-02-08 18:32:00,18.0,9.0,30.33,NNW,345,4.0,7.0,69,-99.99,,,-99.99,,2013-02-08 23:32:00,
2013-02-08 18:42:00,18.0,9.0,30.33,NNW,345,4.0,7.0,69,-99.99,,,-99.99,,2013-02-08 23:42:00,
2013-02-08 18:52:00,16.0,8.0,30.32,NNE,25,1.0,9.0,72,-99.99,,,-99.99,,2013-02-08 23:52:00,
2013-02-08 19:02:00,15.0,8.0,30.32,East,90,0.0,6.0,73,-99.99,,,-99.99,,2013-02-09 00:02:00,
2013-02-08 19:11:00,15.0,8.0,30.32,East,90,0.0,6.0,73,-99.99,,,-99.99,,2013-02-09 00:11:00,
2013-02-08 19:22:00,13.0,6.0,30.32,North,0,1.0,3.0,75,-99.99,,,-99.99,,2013-02-09 00:22:00,
2013-02-08 19:32:00,12.0,6.0,30.31,NNE,30,1.0,5.0,77,-99.99,,,-99.99,,2013-02-09 00:32:00,
2013-02-08 19:42:00,12.0,6.0,30.31,NNE,30,1.0,5.0,77,-99.99,,,-99.99,,2013-02-09 00:42:00,
2013-02-08 19:52:00,11.0,5.0,30.31,West,275,1.0,2.0,78,-99.99,,,-99.99,,2013-02-09 00:52:00,
2013-02-08 20:01:00,10.0,5.0,30.31,East,100,0.0,1.0,79,-99.99,,,-99.99,,2013-02-09 01:01:00,
2013-02-08 20:11:00,10.0,5.0,30.31,East,100,0.0,1.0,79,-99.99,,,-99.99,,2013-02-09 01:11:00,
2013-02-08 20:22:00,9.0,4.0,30.31,SSW,200,1.0,1.0,81,-99.99,,,-99.99,,2013-02-09 01:22:00,
2013-02-08 20:32:00,8.0,3.0,30.32,SSW,200,1.0,2.0,82,-99.99,,,-99.99,,2013-02-09 01:32:00,
2013-02-08 20:42:00,8.0,3.0,30.32,SSW,200,1.0,2.0,82,-99.99,,,-99.99,,2013-02-09 01:42:00,
2013-02-08 20:52:00,7.0,2.0,30.32,SE,135,2.0,3.0,82,-99.99,,,-99.99,,2013-02-09 01:52:00,
2013-02-08 21:01:00,5.0,1.0,30.32,SSW,205,1.0,3.0,83,-99.99,,,-99.99,,2013-02-09 02:01:00,
2013-02-08 21:11:00,5.0,1.0,30.32,SSW,205,1.0,3.0,83,-99.99,,,-99.99,,2013-02-09 02:11:00,
2013-02-08 21:21:00,5.0,1.0,30.32,SSE,155,1.0,2.0,83,-99.99,,,-99.99,,2013-02-09 02:21:00,
2013-02-08 21:32:00,4.0,0.0,30.32,SSW,195,2.0,3.0,84,-99.99,,,-99.99,,2013-02-09 02:32:00,
2013-02-08 21:42:00,4.0,0.0,30.32,SSW,195,2.0,3.0,84,-99.99,,,-99.99,,2013-02-09 02:42:00,
2013-02-08 21:52:00,3.0,-1.0,30.33,South,180,2.0,4.0,84,-99.99,,,-99.99,,2013-02-09 02:52:00,
2013-02-08 22:02:00,2.0,-1.0,30.33,SSE,150,1.0,4.0,84,-99.99,,,-99.99,,2013-02-09 03:02:00,
2013-02-08 22:11:00,2.0,-1.0,30.33,SSE,150,1.0,4.0,84,-99.99,,,-99.99,,2013-02-09 03:11:00,
2013-02-08 22:22:00,2.0,-2.0,30.33,South,185,3.0,4.0,84,-99.99,,,-99.99,,2013-02-09 03:22:00,
2013-02-08 22:32:00,1.0,-2.0,30.34,South,180,3.0,4.0,84,-99.99,,,-99.99,,2013-02-09 03:32:00,
2013-02-08 22:42:00,1.0,-2.0,30.34,South,180,3.0,4.0,84,-99.99,,,-99.99,,2013-02-09 03:42:00,
2013-02-08 22:52:00,1.0,-2.0,30.34,SE,145,2.0,4.0,84,-99.99,,,-99.99,,2013-02-09 03:52:00,
2013-02-08 23:02:00,1.0,-3.0,30.34,South,180,3.0,4.0,84,-99.99,,,-99.99,,2013-02-09 04:02:00,
2013-02-08 23:12:00,1.0,-3.0,30.34,South,180,3.0,4.0,84,-99.99,,,-99.99,,2013-02-09 04:12:00,
2013-02-08 23:23:00,1.0,-3.0,30.34,South,170,2.0,6.0,84,-99.99,,,-99.99,,2013-02-09 04:23:00,
2013-02-08 23:32:00,1.0,-3.0,30.34,South,175,2.0,5.0,84,-99.99,,,-99.99,,2013-02-09 04:32:00,
2013-02-08 23:42:00,1.0,-3.0,30.34,South,175,2.0,5.0,84,-99.99,,,-99.99,,2013-02-09 04:42:00,
2013-02-08 23:52:00,0.0,-3.0,30.34,SSE,165,3.0,5.0,84,-99.99,,,-99.99,,2013-02-09 04:52:00,